Weather History for KNPA - March, 2013

Change the Weather History Date:

Saturday, March 16, 2013

  Actual Average (KPNS) Record (KPNS)
Temperature  
Mean Temperature 60 °F 60 °F  
Max Temperature 73 °F 70 °F 84 °F (1977)
Min Temperature 48 °F 51 °F 32 °F (1937)
Degree Days  
Heating Degree Days 5 6  
Month to date heating degree days 110  
Since 1 July heating degree days 1418  
Cooling Degree Days 0 1  
Month to date cooling degree days 15  
Year to date cooling degree days 29  
Growing Degree Days 10 (Base 50)    
Moisture  
Dew Point 54 °F    
Average Humidity 80    
Maximum Humidity 100    
Minimum Humidity 53    
Precipitation  
Precipitation 0.00 in 0.18 in 5.65 in (1990)
Month to date precipitation 3.07  
Year to date precipitation 12.76  
Snow  
Snow 0.00 in 0.00 in - ()
Month to date snowfall 0.0  
Since 1 July snowfall 0.0  
Snow Depth -    
Sea Level Pressure  
Sea Level Pressure 30.08 in    
Wind  
Wind Speed 5 mph (SSW)    
Max Wind Speed 12 mph    
Max Gust Speed 18 mph    
Visibility 9 miles    
Events Rain    
T = Trace of Precipitation, MM = Missing Value Source: NWS Daily Summary

Daily Weather History Graph

Daily Weather History Graph

Search for Another Location

Airport or City:

Trip Planner

Search our weather history database for the weather conditions in past years. The results will help you decide how hot, cold, wet, or windy it might be!

Date:

Astronomy

Mar. 16, 2013 Rise Set
Actual Time 6:57 AM CDT 6:58 PM CDT
Civil Twilight 6:33 AM CDT 7:22 PM CDT
Nautical Twilight 6:05 AM CDT 7:50 PM CDT
Astronomical Twilight 5:37 AM CDT 8:18 PM CDT
Moon 9:48 AM CDT (3/16) 11:44 PM CDT (3/16)
Length of Visible Light 12h 48m
Length of Day
12h 00m
Waxing Crescent, 23% of the Moon is Illuminated
Mar 16
Waxing Crescent
Mar 19
First Quarter
Mar 27
Full
Apr 2
Last Quarter
Apr 10
New

Hourly Weather History & Observations

Time (CDT) Temp. Dew Point Humidity Pressure Visibility Wind Dir Wind Speed Gust Speed Precip Events Conditions
12:56 AM 59.0 °F 53.1 °F 81% 30.14 in 10.0 mi SW 8.1 mph - N/A   Clear
1:56 AM 59.0 °F 53.1 °F 81% 30.13 in 10.0 mi SW 8.1 mph - N/A   Clear
2:56 AM 59.0 °F 53.1 °F 81% 30.11 in 10.0 mi WSW 4.6 mph - N/A   Clear
3:56 AM 53.1 °F 50.0 °F 89% 30.09 in 10.0 mi WSW 3.5 mph - N/A   Clear
4:56 AM 55.0 °F 53.1 °F 93% 30.08 in 10.0 mi SW 5.8 mph - N/A   Clear
5:56 AM 52.0 °F 52.0 °F 100% 30.09 in 10.0 mi Calm Calm - 0.00 in Rain Light Rain
6:15 AM 48.2 °F 48.2 °F 100% 30.10 in 1.8 mi Calm Calm - 0.00 in   Clear
6:23 AM 48.2 °F 48.2 °F 100% 30.10 in 3.0 mi Calm Calm - 0.00 in   Clear
6:56 AM 48.9 °F 48.0 °F 97% 30.11 in 8.0 mi Calm Calm - 0.00 in   Clear
7:11 AM 48.2 °F 48.2 °F 100% 30.11 in 7.0 mi Calm Calm - N/A   Partly Cloudy
7:56 AM 53.1 °F 51.1 °F 93% 30.12 in 10.0 mi Calm Calm - 0.00 in   Clear
8:56 AM 64.0 °F 57.0 °F 78% 30.13 in 10.0 mi WSW 3.5 mph - N/A   Clear
9:56 AM 68.0 °F 55.0 °F 63% 30.13 in 10.0 mi SW 11.5 mph 18.4 mph N/A   Partly Cloudy
10:56 AM 70.0 °F 55.0 °F 59% 30.13 in 10.0 mi SW 10.4 mph - N/A   Scattered Clouds
11:56 AM 71.1 °F 55.9 °F 59% 30.13 in 10.0 mi SSW 9.2 mph - N/A   Scattered Clouds
12:56 PM 72.0 °F 55.9 °F 57% 30.12 in 10.0 mi SSW 10.4 mph - N/A   Scattered Clouds
1:56 PM 72.0 °F 55.0 °F 55% 30.09 in 10.0 mi SW 11.5 mph 17.3 mph N/A   Scattered Clouds
2:56 PM 72.0 °F 54.0 °F 53% 30.06 in 10.0 mi SW 10.4 mph - N/A   Scattered Clouds
3:56 PM 71.1 °F 55.0 °F 57% 30.04 in 10.0 mi South 11.5 mph - N/A   Partly Cloudy
4:56 PM 69.1 °F 55.9 °F 63% 30.03 in 10.0 mi South 8.1 mph - N/A   Partly Cloudy
5:29 PM 69.8 °F 55.4 °F 60% 30.02 in 10.0 mi SSW 6.9 mph - N/A   Partly Cloudy
5:56 PM 66.9 °F 57.0 °F 70% 30.02 in 10.0 mi South 6.9 mph - N/A   Clear
6:56 PM 63.0 °F 57.9 °F 84% 30.02 in 10.0 mi South 4.6 mph - N/A   Clear
7:56 PM 59.0 °F 57.0 °F 93% 30.03 in 10.0 mi Calm Calm - N/A   Clear
8:56 PM 57.0 °F 55.0 °F 93% 30.04 in 10.0 mi Calm Calm - N/A   Clear
9:56 PM 59.0 °F 57.0 °F 93% 30.04 in 10.0 mi South 4.6 mph - N/A   Clear
10:56 PM 59.0 °F 57.9 °F 96% 30.04 in 10.0 mi South 3.5 mph - 0.00 in   Clear
11:56 PM 57.0 °F 57.0 °F 100% 30.03 in 9.0 mi Calm Calm - 0.00 in Rain Light Rain